| time (UTC) | temp F | wind direction | speed MPH | gust MPH | rain 1hr in | rain 24hr in | rain mn in | humidity % | barometer mb |
| 20260509135412 | 69 | 327 | 2.0 | 9.0 | 0.00 | 0.00 | 0.00 | 54 | 1018.3 |
| 20260509135246 | 69 | 301 | 2.0 | 8.0 | 0.00 | 0.00 | 0.00 | 52 | 1018.3 |
| 20260509134746 | 69 | 306 | 2.0 | 8.0 | 0.00 | 0.00 | 0.00 | 53 | 1018.3 |
| 20260509134412 | 69 | 308 | 3.0 | 10.0 | 0.00 | 0.00 | 0.00 | 52 | 1018.3 |
| 20260509134244 | 69 | 285 | 2.0 | 10.0 | 0.00 | 0.00 | 0.00 | 50 | 1018.3 |
| 20260509134011 | 70 | 291 | 2.0 | 10.0 | 0.00 | 0.00 | 0.00 | 51 | 1018.3 |
| 20260509133412 | 69 | 302 | 2.0 | 12.0 | 0.00 | 0.00 | 0.00 | 52 | 1018.3 |
| 20260509133241 | 69 | 45 | 2.0 | 12.0 | 0.00 | 0.00 | 0.00 | 52 | 1018.3 |
| 20260509132741 | 69 | 165 | 2.0 | 12.0 | 0.00 | 0.00 | 0.00 | 50 | 1018.4 |
| 20260509132412 | 69 | 162 | 2.0 | 12.0 | 0.00 | 0.00 | 0.00 | 51 | 1018.5 |
| 20260509132241 | 69 | 148 | 3.0 | 12.0 | 0.00 | 0.00 | 0.00 | 51 | 1018.5 |
| 20260509131742 | 70 | 176 | 3.0 | 12.0 | 0.00 | 0.00 | 0.00 | 51 | 1018.4 |
| 20260509131412 | 70 | 231 | 3.0 | 10.0 | 0.00 | 0.00 | 0.00 | 52 | 1018.5 |
| 20260509131241 | 70 | 266 | 3.0 | 10.0 | 0.00 | 0.00 | 0.00 | 51 | 1018.4 |
| 20260509130739 | 69 | 24 | 3.0 | 10.0 | 0.00 | 0.00 | 0.00 | 54 | 1018.4 |
| 20260509130517 | 69 | 72 | 3.0 | 13.0 | 0.00 | 0.00 | 0.00 | 54 | 1018.3 |
| 20260509130507 | 69 | 54 | 3.0 | 8.0 | 0.00 | 0.00 | 0.00 | 55 | 1018.3 |
| 20260509130016 | 69 | 116 | 3.0 | 13.0 | 0.00 | 0.00 | 0.00 | 54 | 1018.3 |
| 20260509125412 | 69 | 68 | 3.0 | 13.0 | 0.00 | 0.00 | 0.00 | 53 | 1018.3 |
| 20260509125239 | 69 | 67 | 4.0 | 13.0 | 0.00 | 0.00 | 0.00 | 55 | 1018.3 |
| 20260509124740 | 69 | 58 | 4.0 | 13.0 | 0.00 | 0.00 | 0.00 | 56 | 1018.3 |
| 20260509124412 | 69 | 131 | 3.0 | 13.0 | 0.00 | 0.00 | 0.00 | 56 | 1018.4 |
| 20260509124240 | 69 | 133 | 3.0 | 11.0 | 0.00 | 0.00 | 0.00 | 56 | 1018.2 |
| 20260509123738 | 68 | 128 | 2.0 | 7.0 | 0.00 | 0.00 | 0.00 | 57 | 1018.2 |
| 20260509123412 | 68 | 134 | 2.0 | 9.0 | 0.00 | 0.00 | 0.00 | 57 | 1018.3 |
| 20260509123237 | 68 | 122 | 2.0 | 9.0 | 0.00 | 0.00 | 0.00 | 57 | 1018.3 |
| 20260509122738 | 67 | 179 | 2.0 | 11.0 | 0.00 | 0.00 | 0.00 | 58 | 1018.4 |
| 20260509122412 | 67 | 157 | 3.0 | 11.0 | 0.00 | 0.00 | 0.00 | 58 | 1018.4 |
| 20260509122236 | 67 | 139 | 3.0 | 11.0 | 0.00 | 0.00 | 0.00 | 58 | 1018.3 |
| 20260509121735 | 67 | 114 | 3.0 | 11.0 | 0.00 | 0.00 | 0.00 | 58 | 1018.4 |
| 20260509121511 | 67 | 149 | 3.0 | 11.0 | 0.00 | 0.00 | 0.00 | 57 | 1018.5 |
| 20260509121500 | 67 | 136 | 3.0 | 11.0 | 0.00 | 0.00 | 0.00 | 57 | 1018.5 |
| 20260509120736 | 68 | 142 | 2.0 | 8.0 | 0.00 | 0.00 | 0.00 | 57 | 1018.5 |
| 20260509120411 | 67 | 35 | 2.0 | 8.0 | 0.00 | 0.00 | 0.00 | 57 | 1018.4 |
| 20260509120235 | 67 | 28 | 2.0 | 9.0 | 0.00 | 0.00 | 0.00 | 57 | 1018.5 |
| 20260509115735 | 68 | 350 | 2.0 | 9.0 | 0.00 | 0.00 | 0.00 | 57 | 1018.5 |
| 20260509115409 | 68 | 97 | 2.0 | 13.0 | 0.00 | 0.00 | 0.00 | 56 | 1018.4 |
| 20260509115236 | 68 | 134 | 3.0 | 13.0 | 0.00 | 0.00 | 0.00 | 57 | 1018.6 |
| 20260509114735 | 68 | 144 | 3.0 | 13.0 | 0.00 | 0.00 | 0.00 | 58 | 1018.5 |
| 20260509114409 | 68 | 158 | 3.0 | 13.0 | 0.00 | 0.00 | 0.00 | 57 | 1018.6 |
| 20260509114236 | 68 | 148 | 3.0 | 13.0 | 0.00 | 0.00 | 0.00 | 57 | 1018.5 |
| 20260509113736 | 68 | 101 | 4.0 | 13.0 | 0.00 | 0.00 | 0.00 | 58 | 1018.4 |
| 20260509113409 | 68 | 24 | 4.0 | 11.0 | 0.00 | 0.00 | 0.00 | 57 | 1018.4 |
| 20260509113235 | 69 | 9 | 4.0 | 11.0 | 0.00 | 0.00 | 0.00 | 56 | 1018.4 |
| 20260509112736 | 69 | 318 | 4.0 | 10.0 | 0.00 | 0.00 | 0.00 | 56 | 1018.4 |
| 20260509112409 | 69 | 325 | 3.0 | 10.0 | 0.00 | 0.00 | 0.00 | 55 | 1018.5 |
| 20260509112238 | 69 | 351 | 3.0 | 9.0 | 0.00 | 0.00 | 0.00 | 56 | 1018.6 |
| 20260509111737 | 69 | 15 | 3.0 | 6.0 | 0.00 | 0.00 | 0.00 | 57 | 1018.6 |
| 20260509111408 | 69 | 126 | 4.0 | 6.0 | 0.00 | 0.00 | 0.00 | 57 | 1018.6 |
| 20260509111238 | 69 | 157 | 5.0 | 6.0 | 0.00 | 0.00 | 0.00 | 57 | 1018.6 |
| 20260509110731 | 68 | 186 | 5.0 | 6.0 | 0.00 | 0.00 | 0.00 | 57 | 1018.5 |
| 20260509110406 | 68 | 294 | 5.0 | 13.0 | 0.00 | 0.00 | 0.00 | 57 | 1018.7 |
| 20260509110232 | 68 | 336 | 5.0 | 13.0 | 0.00 | 0.00 | 0.00 | 57 | 1018.6 |
| 20260509105732 | 66 | 15 | 6.0 | 13.0 | 0.00 | 0.00 | 0.00 | 57 | 1018.6 |
| 20260509105407 | 66 | 12 | 7.0 | 13.0 | 0.00 | 0.00 | 0.00 | 57 | 1018.6 |
| 20260509105230 | 66 | 6 | 6.0 | 13.0 | 0.00 | 0.00 | 0.00 | 57 | 1018.6 |
| 20260509104732 | 67 | 340 | 6.0 | 13.0 | 0.00 | 0.00 | 0.00 | 57 | 1018.6 |
| 20260509104411 | 67 | 280 | 4.0 | 8.0 | 0.00 | 0.00 | 0.00 | 57 | 1018.4 |
| 20260509104231 | 67 | 280 | 4.0 | 8.0 | 0.00 | 0.00 | 0.00 | 57 | 1018.5 |
| 20260509104008 | 67 | 237 | 3.0 | 9.0 | 0.00 | 0.00 | 0.00 | 58 | 1018.5 |
| 20260509103407 | 67 | 202 | 3.0 | 12.0 | 0.00 | 0.00 | 0.00 | 54 | 1018.5 |
| 20260509103230 | 67 | 191 | 3.0 | 12.0 | 0.00 | 0.00 | 0.00 | 54 | 1018.9 |
| 20260509102731 | 67 | 269 | 4.0 | 12.0 | 0.00 | 0.00 | 0.00 | 54 | 1019.0 |
| 20260509102407 | 67 | 307 | 5.0 | 12.0 | 0.00 | 0.00 | 0.00 | 52 | 1019.0 |
| 20260509102231 | 67 | 331 | 5.0 | 12.0 | 0.00 | 0.00 | 0.00 | 51 | 1019.0 |
| 20260509101731 | 67 | 42 | 5.0 | 12.0 | 0.00 | 0.00 | 0.00 | 54 | 1019.1 |
| 20260509101407 | 67 | 85 | 4.0 | 10.0 | 0.00 | 0.00 | 0.00 | 54 | 1019.1 |
| 20260509101231 | 67 | 214 | 4.0 | 10.0 | 0.00 | 0.00 | 0.00 | 55 | 1019.1 |
| 20260509100731 | 67 | 170 | 5.0 | 10.0 | 0.00 | 0.00 | 0.00 | 53 | 1019.1 |
| 20260509100407 | 67 | 209 | 4.0 | 10.0 | 0.00 | 0.00 | 0.00 | 52 | 1019.1 |
| 20260509100231 | 67 | 178 | 4.0 | 10.0 | 0.00 | 0.00 | 0.00 | 51 | 1019.1 |
| 20260509095729 | 67 | 222 | 3.0 | 10.0 | 0.00 | 0.00 | 0.00 | 55 | 1019.2 |
| 20260509095406 | 66 | 171 | 4.0 | 10.0 | 0.00 | 0.00 | 0.00 | 56 | 1019.1 |
| 20260509095230 | 66 | 168 | 4.0 | 10.0 | 0.00 | 0.00 | 0.00 | 56 | 1019.2 |
| 20260509095003 | 65 | 175 | 4.0 | 9.0 | 0.00 | 0.00 | 0.00 | 54 | 1019.2 |
| 20260509094406 | 66 | 248 | 4.0 | 9.0 | 0.00 | 0.00 | 0.00 | 54 | 1019.1 |
| 20260509094230 | 65 | 278 | 4.0 | 9.0 | 0.00 | 0.00 | 0.00 | 55 | 1019.1 |
| 20260509093727 | 65 | 327 | 4.0 | 9.0 | 0.00 | 0.00 | 0.00 | 57 | 1019.3 |
| 20260509093501 | 65 | 359 | 3.0 | 9.0 | 0.00 | 0.00 | 0.00 | 57 | 1019.2 |
| 20260509093450 | 65 | 6 | 3.0 | 9.0 | 0.00 | 0.00 | 0.00 | 57 | 1019.2 |
| 20260509092727 | 65 | 114 | 4.0 | 9.0 | 0.00 | 0.00 | 0.00 | 57 | 1019.3 |
| 20260509092407 | 65 | 201 | 4.0 | 9.0 | 0.00 | 0.00 | 0.00 | 57 | 1019.3 |
| 20260509092228 | 65 | 162 | 4.0 | 9.0 | 0.00 | 0.00 | 0.00 | 58 | 1019.3 |
| 20260509092000 | 65 | 344 | 4.0 | 11.0 | 0.00 | 0.00 | 0.00 | 57 | 1019.5 |
| 20260509091509 | 65 | 29 | 3.0 | 11.0 | 0.00 | 0.00 | 0.00 | 56 | 1019.5 |
| 20260509091454 | 65 | 31 | 3.0 | 11.0 | 0.00 | 0.00 | 0.00 | 56 | 1019.6 |
| 20260509090956 | 65 | 4 | 3.0 | 11.0 | 0.00 | 0.00 | 0.00 | 56 | 1019.7 |
| 20260509090407 | 65 | 5 | 3.0 | 11.0 | 0.00 | 0.00 | 0.00 | 55 | 1019.5 |
| 20260509090225 | 65 | 353 | 2.0 | 11.0 | 0.00 | 0.00 | 0.00 | 56 | 1019.7 |
| 20260509085723 | 65 | 5 | 2.0 | 8.0 | 0.00 | 0.00 | 0.00 | 54 | 1019.7 |
| 20260509085408 | 65 | 34 | 2.0 | 8.0 | 0.00 | 0.00 | 0.00 | 54 | 1019.8 |
| 20260509085224 | 65 | 55 | 2.0 | 6.0 | 0.00 | 0.00 | 0.00 | 55 | 1019.8 |
| 20260509084724 | 65 | 85 | 2.0 | 4.0 | 0.00 | 0.00 | 0.00 | 53 | 1019.9 |
| 20260509084407 | 65 | 94 | 1.0 | 4.0 | 0.00 | 0.00 | 0.00 | 53 | 1019.9 |
| 20260509084224 | 65 | 95 | 1.0 | 4.0 | 0.00 | 0.00 | 0.00 | 53 | 1019.9 |
| 20260509083722 | 64 | 351 | 2.0 | 4.0 | 0.00 | 0.01 | 0.00 | 52 | 1019.7 |
| 20260509083407 | 64 | 13 | 2.0 | 4.0 | 0.00 | 0.01 | 0.00 | 53 | 1019.8 |
| 20260509083222 | 64 | 28 | 1.0 | 4.0 | 0.00 | 0.01 | 0.00 | 54 | 1019.8 |
| 20260509082721 | 65 | 101 | 1.0 | 2.0 | 0.00 | 0.02 | 0.00 | 51 | 1019.7 |
| 20260509082456 | 65 | 162 | 1.0 | 2.0 | 0.00 | 0.02 | 0.00 | 55 | 1019.7 |
| 20260509082446 | 65 | 184 | 1.0 | 2.0 | 0.00 | 0.02 | 0.00 | 53 | 1019.7 |
| 20260509081722 | 64 | 226 | 1.0 | 4.0 | 0.00 | 0.03 | 0.00 | 56 | 1019.7 |
| 20260509081407 | 64 | 243 | 1.0 | 4.0 | 0.00 | 0.03 | 0.00 | 55 | 1019.9 |
| 20260509081222 | 64 | 262 | 0.0 | 4.0 | 0.00 | 0.03 | 0.00 | 56 | 1019.8 |
| 20260509080722 | 63 | 123 | 1.0 | 4.0 | 0.00 | 0.03 | 0.00 | 57 | 1019.8 |
| 20260509080407 | 63 | 118 | 1.0 | 4.0 | 0.00 | 0.03 | 0.00 | 58 | 1019.9 |
| 20260509080221 | 62 | 115 | 2.0 | 4.0 | 0.00 | 0.03 | 0.00 | 60 | 1019.9 |
| 20260509075958 | 62 | 86 | 1.0 | 4.0 | 0.00 | 0.03 | 0.00 | 64 | 1019.9 |
| 20260509075406 | 62 | 98 | 1.0 | 4.0 | 0.00 | 0.03 | 0.00 | 62 | 1020.0 |
| 20260509075220 | 62 | 115 | 1.0 | 4.0 | 0.00 | 0.03 | 0.00 | 63 | 1020.0 |
| 20260509074958 | 62 | 133 | 1.0 | 4.0 | 0.00 | 0.03 | 0.00 | 61 | 1020.1 |
| 20260509074407 | 62 | 160 | 1.0 | 4.0 | 0.00 | 0.03 | 0.00 | 61 | 1020.1 |
| 20260509074221 | 62 | 161 | 1.0 | 4.0 | 0.00 | 0.03 | 0.00 | 62 | 1020.2 |
| 20260509073725 | 62 | 161 | 1.0 | 2.0 | 0.00 | 0.03 | 0.00 | 62 | 1020.2 |
| 20260509073407 | 62 | 184 | 0.0 | 2.0 | 0.00 | 0.03 | 0.00 | 60 | 1020.2 |
| 20260509073221 | 63 | 213 | 0.0 | 2.0 | 0.00 | 0.03 | 0.00 | 59 | 1020.2 |
| 20260509072950 | 62 | 240 | 0.0 | 2.0 | 0.00 | 0.03 | 0.00 | 57 | 1020.3 |
| 20260509072409 | 62 | 236 | 0.0 | 2.0 | 0.00 | 0.03 | 0.00 | 60 | 1020.2 |
| 20260509072221 | 62 | 236 | 0.0 | 3.0 | 0.00 | 0.03 | 0.00 | 60 | 1020.1 |
| 20260509071719 | 60 | 236 | 0.0 | 3.0 | 0.00 | 0.03 | 0.00 | 62 | 1020.0 |
| 20260509071453 | 60 | 236 | 1.0 | 3.0 | 0.00 | 0.03 | 0.00 | 62 | 1019.9 |
| 20260509071444 | 60 | 238 | 1.0 | 3.0 | 0.00 | 0.03 | 0.00 | 62 | 1019.9 |
| 20260509070711 | 60 | 239 | 1.0 | 3.0 | 0.00 | 0.03 | 0.00 | 61 | 1019.9 |
| 20260509070406 | 60 | 223 | 1.0 | 3.0 | 0.00 | 0.03 | 0.00 | 61 | 1019.9 |
| 20260509070222 | 61 | 213 | 0.0 | 2.0 | 0.00 | 0.04 | 0.00 | 63 | 1019.9 |
| 20260509070215 | 60 | 216 | 1.0 | 2.0 | 0.00 | 0.04 | 0.00 | 62 | 1019.9 |
| 20260509065407 | 60 | 210 | 1.0 | 3.0 | 0.00 | 0.04 | 0.00 | 64 | 1019.8 |
| 20260509065211 | 60 | 212 | 1.0 | 3.0 | 0.00 | 0.04 | 0.00 | 64 | 1019.9 |
| 20260509064943 | 60 | 207 | 0.0 | 3.0 | 0.00 | 0.04 | 0.00 | 64 | 1020.0 |
| 20260509064407 | 60 | 228 | 1.0 | 3.0 | 0.00 | 0.04 | 0.00 | 65 | 1020.1 |
| 20260509064212 | 59 | 234 | 1.0 | 3.0 | 0.00 | 0.04 | 0.00 | 65 | 1020.1 |
| 20260509063712 | 58 | 241 | 1.0 | 6.0 | 0.00 | 0.04 | 0.00 | 64 | 1020.2 |
| 20260509063407 | 58 | 241 | 1.0 | 6.0 | 0.00 | 0.04 | 0.00 | 64 | 1020.0 |
| 20260509063211 | 58 | 245 | 1.0 | 6.0 | 0.00 | 0.04 | 0.00 | 63 | 1020.0 |
| 20260509062711 | 57 | 255 | 1.0 | 6.0 | 0.00 | 0.04 | 0.00 | 65 | 1020.1 |
| 20260509062406 | 57 | 259 | 2.0 | 6.0 | 0.00 | 0.05 | 0.00 | 66 | 1020.1 |
| 20260509062211 | 57 | 258 | 2.0 | 6.0 | 0.00 | 0.05 | 0.00 | 66 | 1020.0 |
| 20260509061711 | 56 | 265 | 2.0 | 6.0 | 0.00 | 0.06 | 0.00 | 68 | 1020.0 |
| 20260509061406 | 56 | 280 | 2.0 | 6.0 | 0.00 | 0.06 | 0.00 | 67 | 1019.9 |
| 20260509061211 | 56 | 278 | 1.0 | 6.0 | 0.00 | 0.06 | 0.00 | 67 | 1019.9 |
| 20260509060708 | 55 | 275 | 1.0 | 5.0 | 0.00 | 0.06 | 0.00 | 69 | 1019.9 |
| 20260509060410 | 55 | 268 | 0.0 | 5.0 | 0.00 | 0.06 | 0.00 | 70 | 1020.0 |
| 20260509060209 | 54 | 280 | 0.0 | 5.0 | 0.00 | 0.06 | 0.00 | 71 | 1019.9 |
| 20260509055707 | 54 | 292 | 1.0 | 5.0 | 0.00 | 0.06 | 0.00 | 72 | 1019.9 |
| 20260509055406 | 54 | 294 | 1.0 | 5.0 | 0.00 | 0.06 | 0.00 | 71 | 1019.8 |
| 20260509055206 | 54 | 299 | 1.0 | 5.0 | 0.00 | 0.06 | 0.00 | 71 | 1019.9 |
| 20260509054706 | 53 | 293 | 1.0 | 4.0 | 0.00 | 0.06 | 0.00 | 73 | 1019.7 |
| 20260509054407 | 53 | 289 | 1.0 | 4.0 | 0.00 | 0.06 | 0.00 | 74 | 1019.8 |
| 20260509054207 | 53 | 279 | 1.0 | 4.0 | 0.00 | 0.06 | 0.00 | 74 | 1019.9 |
| 20260509053708 | 52 | 274 | 0.0 | 3.0 | 0.00 | 0.06 | 0.00 | 77 | 1019.8 |
| 20260509053408 | 52 | 273 | 0.0 | 4.0 | 0.00 | 0.06 | 0.00 | 78 | 1019.7 |
| 20260509053207 | 51 | 284 | 0.0 | 4.0 | 0.00 | 0.06 | 0.00 | 79 | 1019.7 |
| 20260509052707 | 51 | 285 | 0.0 | 5.0 | 0.00 | 0.06 | 0.00 | 78 | 1019.7 |
| 20260509052407 | 52 | 300 | 1.0 | 8.0 | 0.00 | 0.06 | 0.00 | 77 | 1019.7 |
| 20260509052206 | 52 | 287 | 1.0 | 8.0 | 0.00 | 0.06 | 0.00 | 76 | 1019.7 |
| 20260509051706 | 53 | 291 | 2.0 | 8.0 | 0.00 | 0.06 | 0.00 | 74 | 1019.7 |
| 20260509051407 | 53 | 282 | 2.0 | 8.0 | 0.00 | 0.06 | 0.00 | 73 | 1019.8 |
| 20260509051206 | 53 | 281 | 3.0 | 8.0 | 0.00 | 0.06 | 0.00 | 73 | 1019.7 |
| 20260509050706 | 53 | 284 | 3.0 | 8.0 | 0.00 | 0.06 | 0.00 | 71 | 1019.6 |
| 20260509050407 | 53 | 284 | 3.0 | 7.0 | 0.00 | 0.06 | 0.00 | 71 | 1019.6 |
| 20260509050206 | 53 | 285 | 3.0 | 6.0 | 0.00 | 0.06 | 0.00 | 72 | 1019.7 |
| 20260509045726 | 52 | 302 | 2.0 | 8.0 | 0.00 | 0.06 | 0.00 | 73 | 1019.6 |
| 20260509045719 | 53 | 284 | 3.0 | 6.0 | 0.00 | 0.06 | 0.00 | 71 | 1019.6 |
| 20260509045434 | 53 | 294 | 2.0 | 8.0 | 0.00 | 0.06 | 0.00 | 72 | 1019.7 |
| 20260509044936 | 53 | 311 | 2.0 | 8.0 | 0.00 | 0.06 | 0.00 | 73 | 1019.7 |
| 20260509044442 | 52 | 296 | 2.0 | 13.0 | 0.00 | 0.06 | 0.00 | 73 | 1019.6 |
| 20260509044435 | 53 | 302 | 2.0 | 13.0 | 0.00 | 0.06 | 0.00 | 73 | 1019.6 |
| 20260509043705 | 52 | 281 | 2.0 | 13.0 | 0.00 | 0.06 | 0.00 | 73 | 1019.5 |
| 20260509043407 | 52 | 281 | 2.0 | 13.0 | 0.00 | 0.06 | 0.00 | 73 | 1019.5 |
| 20260509043205 | 52 | 286 | 2.0 | 13.0 | 0.00 | 0.06 | 0.00 | 73 | 1019.5 |
| 20260509042937 | 52 | 295 | 2.0 | 13.0 | 0.00 | 0.06 | 0.00 | 73 | 1019.4 |
| 20260509042407 | 52 | 296 | 2.0 | 7.0 | 0.00 | 0.06 | 0.00 | 74 | 1019.6 |
| 20260509042206 | 52 | 305 | 2.0 | 7.0 | 0.00 | 0.06 | 0.00 | 74 | 1019.6 |
| 20260509041705 | 52 | 319 | 2.0 | 7.0 | 0.00 | 0.06 | 0.00 | 75 | 1019.6 |
| 20260509041407 | 52 | 317 | 2.0 | 7.0 | 0.00 | 0.06 | 0.00 | 75 | 1019.5 |
| 20260509041206 | 52 | 313 | 2.0 | 7.0 | 0.00 | 0.06 | 0.00 | 75 | 1019.5 |
| 20260509040704 | 51 | 304 | 1.0 | 7.0 | 0.00 | 0.06 | 0.00 | 76 | 1019.4 |
| 20260509040405 | 51 | 311 | 1.0 | 4.0 | 0.00 | 0.06 | 0.00 | 77 | 1019.4 |
| 20260509040203 | 51 | 304 | 1.0 | 4.0 | 0.00 | 0.07 | 0.00 | 77 | 1019.4 |
| 20260509035701 | 51 | 307 | 1.0 | 4.0 | 0.00 | 0.07 | 0.00 | 78 | 1019.4 |
| 20260509035405 | 51 | 301 | 1.0 | 4.0 | 0.00 | 0.07 | 0.00 | 79 | 1019.5 |
| 20260509035202 | 51 | 295 | 1.0 | 4.0 | 0.00 | 0.07 | 0.00 | 79 | 1019.3 |
| 20260509034931 | 50 | 282 | 1.0 | 4.0 | 0.00 | 0.07 | 0.00 | 80 | 1019.4 |
| 20260509034405 | 50 | 274 | 0.0 | 3.0 | 0.00 | 0.07 | 0.00 | 81 | 1019.4 |
| 20260509034200 | 50 | 274 | 0.0 | 3.0 | 0.00 | 0.07 | 0.00 | 80 | 1019.4 |
| 20260509033932 | 51 | 279 | 0.0 | 3.0 | 0.00 | 0.08 | 0.00 | 79 | 1019.4 |
| 20260509033405 | 51 | 291 | 0.0 | 3.0 | 0.00 | 0.08 | 0.00 | 78 | 1019.5 |
| 20260509033203 | 51 | 298 | 1.0 | 3.0 | 0.00 | 0.09 | 0.00 | 77 | 1019.5 |
| 20260509032701 | 52 | 295 | 1.0 | 4.0 | 0.00 | 0.09 | 0.00 | 76 | 1019.5 |
| 20260509032402 | 52 | 297 | 1.0 | 4.0 | 0.00 | 0.09 | 0.00 | 76 | 1019.6 |
| 20260509032200 | 52 | 297 | 1.0 | 5.0 | 0.00 | 0.09 | 0.00 | 77 | 1019.6 |
| 20260509031701 | 52 | 321 | 1.0 | 5.0 | 0.00 | 0.09 | 0.00 | 75 | 1019.6 |
| 20260509031402 | 53 | 322 | 1.0 | 6.0 | 0.00 | 0.09 | 0.00 | 75 | 1019.6 |
| 20260509031203 | 52 | 316 | 2.0 | 6.0 | 0.00 | 0.09 | 0.00 | 75 | 1019.6 |
| 20260509030702 | 52 | 311 | 1.0 | 6.0 | 0.00 | 0.09 | 0.00 | 75 | 1019.6 |
| 20260509030401 | 52 | 299 | 1.0 | 6.0 | 0.00 | 0.09 | 0.00 | 75 | 1019.6 |
| 20260509030200 | 52 | 309 | 1.0 | 6.0 | 0.00 | 0.09 | 0.00 | 75 | 1019.6 |
| 20260509025700 | 52 | 311 | 1.0 | 6.0 | 0.00 | 0.09 | 0.00 | 75 | 1019.6 |
| 20260509025402 | 52 | 317 | 2.0 | 4.0 | 0.00 | 0.09 | 0.00 | 75 | 1019.6 |
| 20260509025200 | 52 | 314 | 2.0 | 4.0 | 0.00 | 0.09 | 0.00 | 75 | 1019.6 |
| 20260509024659 | 52 | 309 | 2.0 | 4.0 | 0.00 | 0.09 | 0.00 | 75 | 1019.6 |
| 20260509024400 | 52 | 303 | 1.0 | 4.0 | 0.00 | 0.09 | 0.00 | 75 | 1019.6 |
| 20260509024159 | 53 | 302 | 1.0 | 6.0 | 0.00 | 0.09 | 0.00 | 75 | 1019.5 |
| 20260509023934 | 53 | 319 | 1.0 | 8.0 | 0.00 | 0.09 | 0.00 | 75 | 1019.6 |
| 20260509023435 | 53 | 323 | 1.0 | 8.0 | 0.00 | 0.09 | 0.00 | 75 | 1019.5 |
| 20260509023427 | 53 | 328 | 1.0 | 8.0 | 0.00 | 0.09 | 0.00 | 75 | 1019.6 |
| 20260509022656 | 53 | 298 | 2.0 | 8.0 | 0.00 | 0.09 | 0.00 | 75 | 1019.6 |
| 20260509022400 | 53 | 303 | 2.0 | 8.0 | 0.00 | 0.09 | 0.00 | 75 | 1019.6 |
| 20260509022156 | 53 | 315 | 2.0 | 8.0 | 0.00 | 0.09 | 0.00 | 74 | 1019.5 |
| 20260509021934 | 53 | 329 | 1.0 | 4.0 | 0.00 | 0.09 | 0.00 | 75 | 1019.6 |
| 20260509021400 | 53 | 332 | 1.0 | 4.0 | 0.00 | 0.09 | 0.00 | 75 | 1019.6 |
| 20260509021156 | 53 | 329 | 1.0 | 4.0 | 0.00 | 0.09 | 0.00 | 75 | 1019.6 |
| 20260509020656 | 53 | 346 | 1.0 | 3.0 | 0.00 | 0.09 | 0.00 | 76 | 1019.5 |
| 20260509020359 | 53 | 341 | 1.0 | 5.0 | 0.00 | 0.09 | 0.00 | 76 | 1019.5 |
| 20260509020156 | 53 | 345 | 0.0 | 5.0 | 0.00 | 0.09 | 0.00 | 75 | 1019.5 |
| 20260509015658 | 53 | 335 | 1.0 | 7.0 | 0.00 | 0.09 | 0.00 | 75 | 1019.6 |
| 20260509015358 | 53 | 322 | 1.0 | 7.0 | 0.00 | 0.09 | 0.00 | 75 | 1019.6 |
| 20260509015157 | 53 | 305 | 1.0 | 7.0 | 0.00 | 0.09 | 0.00 | 75 | 1019.6 |
| 20260509014656 | 53 | 277 | 2.0 | 7.0 | 0.00 | 0.09 | 0.00 | 74 | 1019.5 |
| 20260509014358 | 53 | 274 | 2.0 | 7.0 | 0.00 | 0.09 | 0.00 | 74 | 1019.5 |
| 20260509014157 | 53 | 274 | 3.0 | 7.0 | 0.00 | 0.09 | 0.00 | 74 | 1019.5 |
| 20260509013657 | 53 | 280 | 3.0 | 6.0 | 0.00 | 0.09 | 0.00 | 74 | 1019.7 |
| 20260509013359 | 53 | 287 | 2.0 | 6.0 | 0.00 | 0.09 | 0.00 | 75 | 1019.7 |
| 20260509013157 | 53 | 292 | 2.0 | 6.0 | 0.00 | 0.09 | 0.00 | 76 | 1019.5 |
| 20260509012657 | 52 | 286 | 1.0 | 3.0 | 0.00 | 0.09 | 0.00 | 78 | 1019.4 |
| 20260509012358 | 52 | 279 | 0.0 | 3.0 | 0.00 | 0.09 | 0.00 | 79 | 1019.3 |
| 20260509012157 | 52 | 273 | 0.0 | 3.0 | 0.00 | 0.09 | 0.00 | 80 | 1019.3 |
| 20260509011656 | 52 | 267 | 0.0 | 2.0 | 0.00 | 0.09 | 0.00 | 79 | 1019.3 |
| 20260509011357 | 52 | 271 | 0.0 | 2.0 | 0.00 | 0.09 | 0.00 | 79 | 1019.4 |
| 20260509011156 | 53 | 280 | 0.0 | 2.0 | 0.00 | 0.09 | 0.00 | 78 | 1019.4 |
| 20260509010653 | 53 | 303 | 0.0 | 2.0 | 0.00 | 0.09 | 0.00 | 77 | 1019.5 |
| 20260509010401 | 53 | 309 | 0.0 | 2.0 | 0.00 | 0.09 | 0.00 | 76 | 1019.4 |
| 20260509010157 | 54 | 314 | 0.0 | 2.0 | 0.00 | 0.09 | 0.00 | 75 | 1019.5 |
| 20260509005651 | 54 | 311 | 0.0 | 3.0 | 0.00 | 0.09 | 0.00 | 74 | 1019.5 |
| 20260509005358 | 54 | 310 | 0.0 | 4.0 | 0.00 | 0.09 | 0.00 | 74 | 1019.5 |
| 20260509005151 | 54 | 311 | 0.0 | 7.0 | 0.00 | 0.09 | 0.00 | 74 | 1019.5 |
| 20260509004650 | 54 | 288 | 0.0 | 7.0 | 0.00 | 0.09 | 0.00 | 74 | 1019.5 |
| 20260509004426 | 54 | 289 | 1.0 | 7.0 | 0.00 | 0.09 | 0.00 | 74 | 1019.5 |
| 20260509004418 | 54 | 285 | 1.0 | 7.0 | 0.00 | 0.09 | 0.00 | 74 | 1019.5 |
| 20260509003645 | 55 | 337 | 1.0 | 7.0 | 0.00 | 0.09 | 0.00 | 73 | 1019.6 |
| 20260509003358 | 55 | 0 | 1.0 | 7.0 | 0.00 | 0.09 | 0.00 | 72 | 1019.5 |
| 20260509003145 | 55 | 355 | 0.0 | 3.0 | 0.00 | 0.09 | 0.00 | 73 | 1019.5 |
| 20260509002645 | 55 | 338 | 1.0 | 3.0 | 0.00 | 0.09 | 0.00 | 73 | 1019.6 |
| 20260509002358 | 55 | 332 | 1.0 | 3.0 | 0.00 | 0.09 | 0.00 | 74 | 1019.6 |
| 20260509002146 | 55 | 329 | 1.0 | 3.0 | 0.00 | 0.09 | 0.00 | 74 | 1019.6 |
| 20260509001645 | 54 | 330 | 1.0 | 3.0 | 0.00 | 0.09 | 0.00 | 74 | 1019.4 |
| 20260509001358 | 55 | 325 | 1.0 | 3.0 | 0.00 | 0.09 | 0.00 | 75 | 1019.5 |
| 20260509001146 | 55 | 327 | 1.0 | 3.0 | 0.00 | 0.09 | 0.00 | 75 | 1019.4 |
| 20260509000646 | 54 | 320 | 1.0 | 3.0 | 0.00 | 0.09 | 0.00 | 75 | 1019.4 |
| 20260509000357 | 54 | 315 | 1.0 | 2.0 | 0.00 | 0.09 | 0.00 | 76 | 1019.3 |
| 20260509000146 | 54 | 302 | 1.0 | 2.0 | 0.00 | 0.09 | 0.00 | 76 | 1019.4 |
| 20260508235922 | 54 | 233 | 0.0 | 2.0 | 0.00 | 0.09 | 0.00 | 78 | 1019.5 |
| 20260508235357 | 53 | 201 | 0.0 | 4.0 | 0.00 | 0.09 | 0.00 | 78 | 1019.4 |
| 20260508235147 | 53 | 189 | 0.0 | 4.0 | 0.00 | 0.09 | 0.00 | 79 | 1019.4 |
| 20260508234646 | 54 | 206 | 0.0 | 4.0 | 0.00 | 0.09 | 0.00 | 78 | 1019.6 |
| 20260508234357 | 54 | 232 | 0.0 | 4.0 | 0.00 | 0.09 | 0.00 | 78 | 1019.5 |
| 20260508234146 | 54 | 248 | 1.0 | 4.0 | 0.00 | 0.09 | 0.00 | 77 | 1019.6 |
| 20260508233647 | 55 | 267 | 1.0 | 4.0 | 0.00 | 0.09 | 0.00 | 76 | 1019.7 |
| 20260508233357 | 55 | 280 | 0.0 | 5.0 | 0.00 | 0.09 | 0.00 | 75 | 1019.8 |
| 20260508233146 | 55 | 293 | 0.0 | 6.0 | 0.00 | 0.09 | 0.00 | 74 | 1019.9 |
| 20260508232645 | 56 | 318 | 1.0 | 6.0 | 0.00 | 0.09 | 0.00 | 73 | 1019.8 |
| 20260508232359 | 56 | 311 | 2.0 | 6.0 | 0.00 | 0.09 | 0.00 | 72 | 1019.8 |
| 20260508232146 | 56 | 312 | 2.0 | 6.0 | 0.00 | 0.09 | 0.00 | 72 | 1019.9 |
| 20260508231920 | 56 | 272 | 2.0 | 6.0 | 0.00 | 0.09 | 0.00 | 72 | 1019.9 |
| 20260508231357 | 56 | 261 | 2.0 | 6.0 | 0.00 | 0.09 | 0.00 | 73 | 1019.9 |
| 20260508231145 | 56 | 252 | 2.0 | 6.0 | 0.00 | 0.09 | 0.00 | 73 | 1019.9 |
| 20260508230655 | 55 | 248 | 2.0 | 6.0 | 0.00 | 0.09 | 0.00 | 75 | 1019.7 |
| 20260508230651 | 55 | 250 | 2.0 | 6.0 | 0.00 | 0.09 | 0.00 | 74 | 1019.9 |
| 20260508230412 | 55 | 250 | 2.0 | 6.0 | 0.00 | 0.09 | 0.00 | 75 | 1019.9 |
| 20260508225646 | 55 | 241 | 1.0 | 3.0 | 0.00 | 0.09 | 0.00 | 77 | 1019.7 |
| 20260508225358 | 54 | 233 | 0.0 | 2.0 | 0.00 | 0.09 | 0.00 | 78 | 1019.7 |
| 20260508225145 | 54 | 228 | 0.0 | 2.0 | 0.00 | 0.09 | 0.00 | 79 | 1019.6 |
| 20260508224646 | 54 | 219 | 0.0 | 1.0 | 0.00 | 0.09 | 0.00 | 80 | 1019.6 |
| 20260508224402 | 54 | 218 | 0.0 | 2.0 | 0.00 | 0.09 | 0.00 | 80 | 1019.5 |
| 20260508224149 | 54 | 218 | 0.0 | 2.0 | 0.00 | 0.09 | 0.00 | 80 | 1019.6 |
| 20260508223647 | 55 | 228 | 0.0 | 2.0 | 0.00 | 0.09 | 0.00 | 79 | 1019.7 |
| 20260508223356 | 55 | 234 | 0.0 | 2.0 | 0.00 | 0.09 | 0.00 | 79 | 1019.8 |
| 20260508223152 | 55 | 237 | 0.0 | 5.0 | 0.00 | 0.09 | 0.00 | 79 | 1019.8 |
| 20260508222646 | 55 | 232 | 0.0 | 5.0 | 0.00 | 0.09 | 0.00 | 78 | 1019.9 |
| 20260508222357 | 55 | 229 | 0.0 | 5.0 | 0.00 | 0.09 | 0.00 | 77 | 1020.0 |
| 20260508222146 | 56 | 231 | 1.0 | 5.0 | 0.00 | 0.09 | 0.00 | 77 | 1019.9 |
| 20260508221643 | 56 | 236 | 1.0 | 5.0 | 0.00 | 0.09 | 0.00 | 75 | 1020.0 |
| 20260508221357 | 56 | 240 | 1.0 | 5.0 | 0.00 | 0.09 | 0.00 | 74 | 1019.9 |
| 20260508221143 | 56 | 240 | 1.0 | 4.0 | 0.00 | 0.09 | 0.00 | 75 | 1019.9 |
| 20260508220644 | 55 | 237 | 1.0 | 3.0 | 0.00 | 0.09 | 0.00 | 77 | 1020.0 |
| 20260508220357 | 55 | 232 | 1.0 | 3.0 | 0.00 | 0.09 | 0.00 | 79 | 1020.0 |
| 20260508220144 | 54 | 228 | 0.0 | 3.0 | 0.00 | 0.09 | 0.00 | 80 | 1019.8 |
| 20260508215642 | 54 | 226 | 0.0 | 1.0 | 0.00 | 0.09 | 0.09 | 81 | 1019.8 |
| 20260508215358 | 54 | 226 | 0.0 | 1.0 | 0.00 | 0.09 | 0.09 | 81 | 1019.7 |
| 20260508215140 | 54 | 226 | 0.0 | 1.0 | 0.00 | 0.09 | 0.09 | 81 | 1019.7 |
| 20260508214639 | 54 | 226 | 0.0 | 1.0 | 0.00 | 0.09 | 0.09 | 82 | 1019.7 |
| 20260508214359 | 54 | 227 | 0.0 | 1.0 | 0.00 | 0.09 | 0.09 | 82 | 1019.6 |
| 20260508214140 | 54 | 227 | 0.0 | 1.0 | 0.00 | 0.09 | 0.09 | 82 | 1019.6 |
| 20260508213912 | 54 | 227 | 0.0 | 1.0 | 0.00 | 0.09 | 0.09 | 82 | 1019.6 |
| 20260508213357 | 54 | 227 | 0.0 | 1.0 | 0.00 | 0.09 | 0.09 | 82 | 1019.6 |
| 20260508213136 | 54 | 227 | 0.0 | 1.0 | 0.00 | 0.09 | 0.09 | 82 | 1019.5 |
| 20260508212636 | 54 | 227 | 0.0 | 1.0 | 0.00 | 0.09 | 0.09 | 82 | 1019.6 |
| 20260508212356 | 54 | 227 | 0.0 | 1.0 | 0.00 | 0.09 | 0.09 | 82 | 1019.5 |
| 20260508212136 | 54 | 227 | 0.0 | 1.0 | 0.00 | 0.09 | 0.09 | 82 | 1019.5 |
| 20260508211636 | 54 | 227 | 0.0 | 1.0 | 0.00 | 0.09 | 0.09 | 82 | 1019.5 |
| 20260508211357 | 54 | 227 | 0.0 | 1.0 | 0.00 | 0.09 | 0.09 | 82 | 1019.5 |
| 20260508211136 | 54 | 227 | 0.0 | 1.0 | 0.00 | 0.09 | 0.09 | 81 | 1019.5 |
| 20260508210636 | 54 | 227 | 0.0 | 1.0 | 0.00 | 0.09 | 0.09 | 81 | 1019.7 |
| 20260508210358 | 54 | 227 | 0.0 | 1.0 | 0.00 | 0.09 | 0.09 | 81 | 1019.7 |
| 20260508210137 | 55 | 227 | 0.0 | 1.0 | 0.00 | 0.09 | 0.09 | 81 | 1019.5 |
| 20260508205637 | 55 | 226 | 0.0 | 1.0 | 0.00 | 0.09 | 0.09 | 80 | 1019.4 |
| 20260508205358 | 55 | 225 | 0.0 | 1.0 | 0.00 | 0.09 | 0.09 | 80 | 1019.5 |
| 20260508205137 | 55 | 225 | 0.0 | 1.0 | 0.00 | 0.09 | 0.09 | 81 | 1019.4 |
| 20260508204650 | 55 | 225 | 0.0 | 1.0 | 0.00 | 0.09 | 0.09 | 80 | 1019.4 |
| 20260508204645 | 55 | 225 | 0.0 | 1.0 | 0.00 | 0.09 | 0.09 | 80 | 1019.5 |
| 20260508204406 | 55 | 225 | 0.0 | 1.0 | 0.00 | 0.09 | 0.09 | 80 | 1019.5 |
| 20260508203637 | 55 | 225 | 0.0 | 0.0 | 0.00 | 0.09 | 0.09 | 80 | 1019.4 |
| 20260508203352 | 55 | 225 | 0.0 | 0.0 | 0.00 | 0.09 | 0.09 | 80 | 1019.4 |
| 20260508203137 | 56 | 225 | 0.0 | 0.0 | 0.00 | 0.09 | 0.09 | 80 | 1019.3 |
| 20260508202901 | 56 | 225 | 0.0 | 0.0 | 0.00 | 0.09 | 0.09 | 80 | 1019.3 |
| 20260508202352 | 56 | 225 | 0.0 | 0.0 | 0.00 | 0.09 | 0.09 | 80 | 1019.3 |
| 20260508202139 | 56 | 225 | 0.0 | 1.0 | 0.00 | 0.09 | 0.09 | 80 | 1019.4 |
| 20260508201904 | 56 | 227 | 0.0 | 1.0 | 0.00 | 0.09 | 0.09 | 79 | 1019.4 |
| 20260508201416 | 56 | 229 | 0.0 | 1.0 | 0.00 | 0.09 | 0.09 | 79 | 1019.4 |
| 20260508201407 | 56 | 228 | 0.0 | 1.0 | 0.00 | 0.09 | 0.09 | 79 | 1019.4 |
| 20260508200634 | 56 | 229 | 0.0 | 1.0 | 0.00 | 0.09 | 0.09 | 78 | 1019.4 |
| 20260508200352 | 56 | 228 | 0.0 | 1.0 | 0.00 | 0.09 | 0.09 | 78 | 1019.3 |
| 20260508200134 | 56 | 228 | 0.0 | 0.0 | 0.00 | 0.09 | 0.09 | 79 | 1019.3 |
| 20260508195634 | 56 | 224 | 0.0 | 0.0 | 0.00 | 0.09 | 0.09 | 80 | 1019.3 |
| 20260508195354 | 56 | 222 | 0.0 | 0.0 | 0.00 | 0.09 | 0.09 | 80 | 1019.3 |
| 20260508195136 | 56 | 220 | 0.0 | 0.0 | 0.00 | 0.09 | 0.09 | 80 | 1019.2 |
| 20260508194635 | 56 | 218 | 0.0 | 0.0 | 0.00 | 0.09 | 0.09 | 81 | 1019.3 |
| 20260508194352 | 56 | 217 | 0.0 | 0.0 | 0.00 | 0.09 | 0.09 | 80 | 1019.3 |
| 20260508194134 | 56 | 217 | 0.0 | 0.0 | 0.00 | 0.09 | 0.09 | 80 | 1019.2 |
| 20260508193634 | 56 | 216 | 0.0 | 0.0 | 0.00 | 0.09 | 0.09 | 80 | 1019.1 |
| 20260508193353 | 56 | 216 | 0.0 | 0.0 | 0.00 | 0.09 | 0.09 | 80 | 1019.1 |
| 20260508193133 | 56 | 216 | 0.0 | 0.0 | 0.00 | 0.09 | 0.09 | 80 | 1019.0 |
| 20260508192632 | 56 | 215 | 0.0 | 1.0 | 0.00 | 0.09 | 0.09 | 80 | 1019.0 |
| 20260508192352 | 56 | 215 | 0.0 | 1.0 | 0.00 | 0.09 | 0.09 | 80 | 1019.0 |
| 20260508192130 | 56 | 214 | 0.0 | 1.0 | 0.00 | 0.09 | 0.09 | 80 | 1018.9 |
| 20260508191632 | 57 | 214 | 0.0 | 1.0 | 0.00 | 0.09 | 0.09 | 79 | 1018.9 |
| 20260508191353 | 57 | 218 | 0.0 | 1.0 | 0.00 | 0.09 | 0.09 | 79 | 1018.9 |
| 20260508191132 | 57 | 219 | 0.0 | 2.0 | 0.00 | 0.09 | 0.09 | 79 | 1018.9 |
| 20260508190631 | 57 | 211 | 0.0 | 2.0 | 0.00 | 0.09 | 0.09 | 79 | 1018.6 |
| 20260508190352 | 57 | 203 | 0.0 | 2.0 | 0.00 | 0.09 | 0.09 | 79 | 1018.6 |
| 20260508190132 | 57 | 197 | 0.0 | 2.0 | 0.00 | 0.09 | 0.09 | 79 | 1018.5 |
| 20260508185908 | 57 | 201 | 1.0 | 2.0 | 0.00 | 0.09 | 0.09 | 78 | 1018.4 |
| 20260508185353 | 57 | 207 | 1.0 | 2.0 | 0.00 | 0.09 | 0.09 | 78 | 1018.5 |
| 20260508185131 | 57 | 213 | 1.0 | 2.0 | 0.00 | 0.09 | 0.09 | 78 | 1018.4 |
| 20260508184631 | 57 | 216 | 0.0 | 2.0 | 0.00 | 0.09 | 0.09 | 78 | 1018.3 |
| 20260508184352 | 57 | 216 | 0.0 | 2.0 | 0.00 | 0.09 | 0.09 | 78 | 1018.4 |
| 20260508184131 | 58 | 215 | 0.0 | 2.0 | 0.00 | 0.09 | 0.09 | 78 | 1018.3 |
| 20260508183633 | 58 | 215 | 0.0 | 3.0 | 0.00 | 0.09 | 0.09 | 78 | 1018.2 |
| 20260508183352 | 58 | 215 | 0.0 | 3.0 | 0.00 | 0.09 | 0.09 | 77 | 1018.2 |
| 20260508183131 | 58 | 213 | 0.0 | 3.0 | 0.00 | 0.09 | 0.09 | 77 | 1018.1 |
| 20260508182632 | 58 | 206 | 1.0 | 3.0 | 0.00 | 0.09 | 0.09 | 77 | 1018.2 |
| 20260508182352 | 58 | 208 | 1.0 | 3.0 | 0.00 | 0.09 | 0.09 | 77 | 1018.2 |
| 20260508182131 | 58 | 214 | 1.0 | 3.0 | 0.00 | 0.09 | 0.09 | 77 | 1018.2 |
| 20260508181903 | 59 | 231 | 0.0 | 2.0 | 0.00 | 0.09 | 0.09 | 75 | 1018.1 |
| 20260508181352 | 59 | 234 | 0.0 | 1.0 | 0.00 | 0.09 | 0.09 | 75 | 1018.1 |
| 20260508181131 | 59 | 234 | 0.0 | 1.0 | 0.00 | 0.09 | 0.09 | 75 | 1018.1 |
| 20260508180631 | 59 | 234 | 0.0 | 1.0 | 0.00 | 0.09 | 0.09 | 73 | 1018.2 |
| 20260508180353 | 59 | 234 | 0.0 | 1.0 | 0.00 | 0.09 | 0.09 | 74 | 1018.2 |
| 20260508180132 | 59 | 234 | 0.0 | 2.0 | 0.00 | 0.09 | 0.09 | 74 | 1018.2 |
| 20260508175632 | 59 | 234 | 0.0 | 2.0 | 0.00 | 0.09 | 0.09 | 72 | 1018.3 |
| 20260508175352 | 60 | 234 | 0.0 | 2.0 | 0.00 | 0.09 | 0.09 | 71 | 1018.3 |
| 20260508175132 | 60 | 233 | 0.0 | 2.0 | 0.00 | 0.09 | 0.09 | 70 | 1018.3 |
| 20260508174630 | 60 | 230 | 0.0 | 2.0 | 0.00 | 0.09 | 0.09 | 71 | 1018.2 |
| 20260508174352 | 60 | 230 | 0.0 | 2.0 | 0.00 | 0.09 | 0.09 | 71 | 1018.3 |
| 20260508174128 | 60 | 230 | 0.0 | 1.0 | 0.00 | 0.09 | 0.09 | 71 | 1018.1 |
| 20260508173628 | 61 | 232 | 0.0 | 1.0 | 0.00 | 0.09 | 0.09 | 68 | 1018.2 |
| 20260508173352 | 61 | 232 | 0.0 | 1.0 | 0.00 | 0.09 | 0.09 | 67 | 1018.1 |
| 20260508173126 | 61 | 232 | 0.0 | 1.0 | 0.00 | 0.09 | 0.09 | 67 | 1018.2 |
| 20260508172626 | 61 | 232 | 0.0 | 2.0 | 0.00 | 0.09 | 0.09 | 66 | 1018.1 |
| 20260508172354 | 62 | 232 | 0.0 | 2.0 | 0.00 | 0.09 | 0.09 | 67 | 1018.1 |
| 20260508172130 | 62 | 232 | 0.0 | 2.0 | 0.00 | 0.09 | 0.09 | 66 | 1018.1 |
| 20260508171624 | 62 | 232 | 0.0 | 2.0 | 0.00 | 0.09 | 0.09 | 64 | 1018.0 |
| 20260508171352 | 63 | 231 | 0.0 | 3.0 | 0.00 | 0.09 | 0.09 | 64 | 1018.2 |
| 20260508171122 | 63 | 230 | 0.0 | 3.0 | 0.00 | 0.09 | 0.09 | 62 | 1018.1 |
| 20260508170622 | 64 | 226 | 0.0 | 3.0 | 0.00 | 0.09 | 0.09 | 60 | 1018.2 |
| 20260508170352 | 64 | 224 | 0.0 | 3.0 | 0.00 | 0.09 | 0.09 | 62 | 1018.1 |
| 20260508170122 | 64 | 222 | 0.0 | 3.0 | 0.00 | 0.09 | 0.09 | 59 | 1018.1 |
| 20260508165621 | 64 | 220 | 1.0 | 3.0 | 0.00 | 0.09 | 0.09 | 59 | 1018.1 |
| 20260508165352 | 65 | 220 | 0.0 | 3.0 | 0.00 | 0.09 | 0.09 | 58 | 1018.1 |
| 20260508165121 | 65 | 219 | 0.0 | 3.0 | 0.00 | 0.09 | 0.09 | 57 | 1018.1 |
| 20260508164621 | 65 | 219 | 0.0 | 2.0 | 0.00 | 0.09 | 0.09 | 57 | 1018.2 |
| 20260508164355 | 65 | 219 | 0.0 | 2.0 | 0.00 | 0.09 | 0.09 | 57 | 1018.1 |
| 20260508164349 | 65 | 219 | 0.0 | 2.0 | 0.00 | 0.09 | 0.09 | 56 | 1018.2 |
| 20260508163621 | 65 | 219 | 0.0 | 2.0 | 0.00 | 0.09 | 0.09 | 55 | 1018.1 |
| 20260508163351 | 65 | 219 | 0.0 | 2.0 | 0.00 | 0.09 | 0.09 | 55 | 1018.1 |
| 20260508163121 | 65 | 218 | 0.0 | 2.0 | 0.00 | 0.09 | 0.09 | 55 | 1018.1 |
| 20260508162621 | 65 | 216 | 0.0 | 3.0 | 0.00 | 0.09 | 0.09 | 54 | 1018.1 |
| 20260508162351 | 65 | 215 | 0.0 | 3.0 | 0.00 | 0.09 | 0.09 | 56 | 1018.1 |
| 20260508162121 | 65 | 213 | 0.0 | 3.0 | 0.00 | 0.09 | 0.09 | 56 | 1018.1 |
| 20260508161623 | 65 | 214 | 1.0 | 3.0 | 0.00 | 0.09 | 0.09 | 58 | 1018.1 |
| 20260508161351 | 65 | 215 | 1.0 | 3.0 | 0.00 | 0.09 | 0.09 | 57 | 1018.1 |
| 20260508161121 | 65 | 216 | 1.0 | 3.0 | 0.00 | 0.09 | 0.09 | 58 | 1018.1 |
| 20260508160624 | 65 | 214 | 1.0 | 4.0 | 0.00 | 0.09 | 0.09 | 56 | 1018.0 |
| 20260508160351 | 65 | 212 | 1.0 | 4.0 | 0.00 | 0.09 | 0.09 | 57 | 1018.1 |
| 20260508160120 | 64 | 211 | 1.0 | 4.0 | 0.00 | 0.09 | 0.09 | 58 | 1018.0 |
| 20260508155632 | 63 | 224 | 1.0 | 4.0 | 0.00 | 0.09 | 0.09 | 61 | 1018.1 |
| 20260508155627 | 64 | 211 | 2.0 | 4.0 | 0.00 | 0.09 | 0.09 | 60 | 1018.1 |
| 20260508155600 | 64 | 217 | 2.0 | 4.0 | 0.00 | 0.09 | 0.09 | 60 | 1018.1 |
| 20260508154617 | 64 | 235 | 1.0 | 3.0 | 0.00 | 0.09 | 0.09 | 61 | 1018.2 |
| 20260508154353 | 63 | 234 | 1.0 | 3.0 | 0.00 | 0.09 | 0.09 | 60 | 1018.1 |
| 20260508154348 | 63 | 233 | 1.0 | 3.0 | 0.00 | 0.09 | 0.09 | 60 | 1018.2 |
| 20260508153618 | 63 | 235 | 1.0 | 5.0 | 0.00 | 0.09 | 0.09 | 62 | 1018.2 |
| 20260508153357 | 63 | 235 | 1.0 | 5.0 | 0.00 | 0.09 | 0.09 | 63 | 1018.1 |
| 20260508153349 | 62 | 235 | 2.0 | 5.0 | 0.00 | 0.09 | 0.09 | 62 | 1018.1 |
| 20260508152615 | 62 | 233 | 2.0 | 5.0 | 0.00 | 0.09 | 0.09 | 63 | 1018.1 |
| 20260508152351 | 62 | 233 | 2.0 | 5.0 | 0.00 | 0.09 | 0.09 | 64 | 1018.1 |
| 20260508152114 | 62 | 232 | 1.0 | 5.0 | 0.00 | 0.09 | 0.09 | 64 | 1018.2 |
| 20260508151846 | 62 | 232 | 0.0 | 4.0 | 0.00 | 0.09 | 0.09 | 62 | 1018.2 |
| 20260508151351 | 63 | 231 | 0.0 | 4.0 | 0.00 | 0.09 | 0.09 | 62 | 1018.3 |
| 20260508151112 | 62 | 232 | 0.0 | 4.0 | 0.00 | 0.09 | 0.09 | 63 | 1018.2 |
| 20260508150610 | 62 | 234 | 1.0 | 4.0 | 0.00 | 0.09 | 0.09 | 63 | 1018.3 |
| 20260508150353 | 62 | 235 | 1.0 | 4.0 | 0.00 | 0.09 | 0.09 | 64 | 1018.3 |
| 20260508150111 | 62 | 234 | 1.0 | 4.0 | 0.00 | 0.09 | 0.09 | 63 | 1018.2 |
| 20260508145840 | 62 | 233 | 0.0 | 2.0 | 0.00 | 0.09 | 0.09 | 63 | 1018.4 |
| 20260508145350 | 62 | 233 | 0.0 | 3.0 | 0.00 | 0.09 | 0.09 | 63 | 1018.4 |
| 20260508145124 | 62 | 234 | 0.0 | 3.0 | 0.00 | 0.09 | 0.09 | 65 | 1018.4 |
| 20260508145113 | 62 | 234 | 0.0 | 3.0 | 0.00 | 0.09 | 0.09 | 64 | 1018.4 |
| 20260508144351 | 61 | 235 | 0.0 | 3.0 | 0.00 | 0.09 | 0.09 | 65 | 1018.3 |
| 20260508144114 | 61 | 235 | 1.0 | 3.0 | 0.00 | 0.09 | 0.09 | 65 | 1018.2 |
| 20260508143851 | 61 | 233 | 0.0 | 3.0 | 0.00 | 0.09 | 0.09 | 67 | 1018.3 |
| 20260508143847 | 61 | 235 | 1.0 | 3.0 | 0.00 | 0.09 | 0.09 | 65 | 1018.3 |
| 20260508143558 | 61 | 234 | 0.0 | 3.0 | 0.00 | 0.09 | 0.09 | 65 | 1018.4 |
| 20260508142612 | 61 | 233 | 1.0 | 3.0 | 0.00 | 0.09 | 0.09 | 66 | 1018.4 |
| 20260508142351 | 61 | 233 | 1.0 | 3.0 | 0.00 | 0.09 | 0.09 | 66 | 1018.5 |
| 20260508142344 | 61 | 233 | 1.0 | 3.0 | 0.00 | 0.09 | 0.09 | 66 | 1018.5 |
| 20260508141612 | 61 | 232 | 1.0 | 3.0 | 0.00 | 0.09 | 0.09 | 65 | 1018.4 |
| 20260508141351 | 61 | 231 | 1.0 | 3.0 | 0.00 | 0.09 | 0.09 | 65 | 1018.5 |
| 20260508141111 | 61 | 231 | 0.0 | 3.0 | 0.00 | 0.09 | 0.09 | 65 | 1018.5 |
| 20260508140848 | 62 | 230 | 0.0 | 3.0 | 0.00 | 0.09 | 0.09 | 67 | 1018.6 |
| 20260508140351 | 62 | 231 | 0.0 | 3.0 | 0.00 | 0.09 | 0.09 | 67 | 1018.6 |
| 20260508140345 | 61 | 232 | 0.0 | 3.0 | 0.00 | 0.09 | 0.09 | 67 | 1018.5 |